www.pogodaiklimat.ru

ПОГОДА в Пойнт-Лее, AK

  • Прогноз погоды в Пойнт-Лее
  • Монитор погоды в Пойнт-Лее
  • Климат в Пойнт-Лее

АРХИВ ПОГОДЫ в Пойнт-Лее

Время (UTC), дата Ветер
(напр.,м/с)
 
Видим.   Явления Облачность Т
(С)
Тd
(С)
f
(%)
Тe
(С)
Тes
(С)
Комфортность

P
(гПа)

Po
(гПа)
Тmin
(С)
Tmax
(С)
R
(мм)
SD
(см)
23:56 24.05 З  16 км    8/8 480 м  +1.1  -1.7  82  -3  -2    1022.5  1020.9         
00:07 25.05 З  16 км    5/5 480 м  +1.0  -2.0  80  -4  -1      1020.9         
00:56 25.05 СЗ  16 км    ясно  +1.1  -1.7  82  -4  +3    1022.6  1021.3         
01:56 25.05 нст  16 км    ясно  +1.7  -1.1  82  -2  +4    1022.7  1021.3         
02:30 25.05 СЗ  16 км    2/2 270 м  +2.0  -1.0  80  -1  +4      1021.3         
02:44 25.05 СЗ  16 км    8/8 270 м  +1.0  -1.0  86  -4  -3      1020.9         
02:56 25.05 СЗ  16 км    5/5 270 м  +1.1  -1.1  85  -3  -1    1022.6  1021.3         
03:04 25.05 З  16 км    8/8 270 м  +1.0  -1.0  86  -4  -3      1021.3         
03:56 25.05 З  16 км    2/2 210 м  +1.1  -1.1  85  -3  -0    1022.4  1020.9         
04:56 25.05 СЗ  16 км    ясно  +0.6  -1.1  88  -2  0    1022.4  1020.9  +0.6  +3.3     
05:56 25.05 С  16 км    ясно  +0.6  -1.7  85  -4  -3    1022.4  1020.9         
06:56 25.05 С  16 км    ясно  +0.6  -1.1  88  -4  -4    1022.3  1020.9         
08:56 25.05 СВ  16 км    ясно  -0.6  -1.7  92  -6  -6    1022.1  1020.6         
09:37 25.05 С  2 км  дымка  2/2 30 м  -2.0  -2.0  100  -8  -8      1020.6         
09:39 25.05 С  800 м  переохлажденный туман  ?/?  -2.0  -2.0  100  -8  -8      1020.6         
09:48 25.05 С  400 м  переохлажденный туман  8/8 30 м  -2.0  -3.0  93  -8  -8      1020.2         
09:56 25.05 С  400 м  переохлажденный туман  8/8 30 м  -1.7  -2.8  92  -8  -8    1021.8  1020.2         
10:56 25.05 СВ  400 м  переохлажденный туман  10/10 30 м  -2.2  -2.8  96  -8  -8    1021.3  1019.9  -2.2  +1.1     
11:00 25.05 СВ  1 км  дымка  10/10 30 м  -2.0  -3.0  93  -8  -8      1019.9         
11:02 25.05 С  2 км  дымка  10/10 30 м  -2.0  -3.0  93  -8  -8      1019.9         
11:11 25.05 СВ  1 км  дымка  10/10 30 м  -2.0  -3.0  93  -8  -8      1019.9         
11:17 25.05 СВ  400 м  переохлажденный туман  10/10 30 м  -2.0  -3.0  93  -8  -8      1019.6         
11:32 25.05 СВ  800 м  слабый снег, переохлажденный туман  10/10 30 м  -2.0  -2.0  100  -8  -8      1019.6         
11:40 25.05 СВ  2 км  дымка  10/10 30 м  -2.0  -2.0  100  -8  -8      1019.6         
11:46 25.05 СВ  3 км  дымка  10/10 30 м  -2.0  -2.0  100  -8  -8      1019.6         
11:53 25.05 СВ  13 км    8/8 30 м  -2.0  -2.0  100  -8  -8      1019.6         
11:56 25.05 СВ  16 км    8/8 30 м  -1.7  -1.7  100  -8  -8    1020.9  1019.6         
12:05 25.05 СВ  16 км    5/5 30 м  -2.0  -2.0  100  -8  -8      1019.2         
12:56 25.05 СВ  16 км    ясно  -1.1  -1.1  100  -7  -7    1020.4  1018.9         
13:56 25.05 СВ  16 км    ясно  -0.6  -1.1  96  -7  -7    1020.0  1018.6         
14:56 25.05 СВ  16 км    ясно  +0.6  0.0  96  -5  -5    1019.7  1018.2         
15:56 25.05 СВ  16 км    ясно  +2.2  0.0  85  -3  -2    1019.3  1017.9         
16:56 25.05 СВ  16 км    ясно  +3.3  +1.1  85  -1  0    1018.9  1017.5  -2.2  +4.4     
17:56 25.05 СВ  16 км    ясно  +5.0  +2.2  82  +1  +4    1018.5  1017.2         
18:56 25.05 С  16 км    ясно  +5.0  +2.2  82  +1  +4    1018.1  1016.5         
19:56 25.05 С  16 км    ясно  +5.0  +2.8  86  -0  +3    1017.5  1015.9         
20:56 25.05 С  16 км    ясно  +5.0  +2.2  82  -1  0    1016.9  1015.5         
21:56 25.05 С  16 км    ясно  +5.0  +2.8  86  -1  +1    1016.4  1014.8         
22:56 25.05 С  16 км    ясно  +5.6  +2.8  82  -0  0    1015.6  1014.2  +3.3  +6.1     
23:56 25.05 С  16 км    ясно  +5.6  +2.8  82  -1  -0    1014.8  1013.5         
00:56 26.05 С  16 км    ясно  +7.2  +3.9  80  +2  +4    1014.4  1012.8         
01:56 26.05 С  16 км    ясно  +7.8  +4.4  79  +3  +4    1013.8  1012.1         
02:56 26.05 С  16 км    ясно  +7.8  +4.4  79  +3  +4    1013.4  1012.1         
03:56 26.05 С  14 км    ясно  +7.8  +4.4  79  +3  +4    1013.1  1011.5         
04:56 26.05 С  16 км    ясно  +7.8  +3.3  73  +3  +3    1012.5  1011.1  +5.6  +8.3     
05:56 26.05 С  16 км    ясно  +6.7  +3.9  82  +1  +2    1012.0  1010.4         
06:56 26.05 СВ  16 км    ясно  +6.1  +3.3  82  +1  +1    1011.3  1009.8         
08:56 26.05 СВ  16 км    ясно  +3.9  +2.2  89  -3  -3    1010.9  1009.4         

 

Местоположение метеостанции Point Lay LRRS Airport: широта 69.7167 долгота -163.0000 высота над уровнем моря 8 м.

В архиве по умолчанию представлена погода в Пойнт-Лее за последние 1-2 суток. Обновление информации о фактической погоде в базе происходит ежечасно! Архивные данные за месяц целиком и за предыдущие месяцы Вы можете получить, выбрав интересующий диапазон дат из раскрывающегося списка и нажав кнопку "Ввод!".

Внимание! Архив погоды МЕТАР в базе сайта хранится не более 60 дней. Нет смысла пытаться выбрать более раннюю дату.

Внимание! Время в таблицах - всемирное. Для получения местного времени необходимо прибавить поправку, которая в Пойнт-Лее равна -9 ч.

Ветер - указаны скорость ветра в м/с и направление, откуда дует ветер: С - северный, СВ - северо-восточный, В - восточный, ЮВ - юго-восточный, Ю - южный, ЮЗ - юго-западный, З - западный, СЗ - северо-западный.
Видимость - горизонтальная дальность видимости в метрах или километрах. При видимости от 1 до 10 км при отсутствии осадков обычно наблюдается дымка, при ухудшении видимости до 1 км и менее - туман. В сухую погоду видимость может ухудшаться дымом, пылью или мглою.
Атмосферные явления - указаны явления, наблюдавшиеся в указанный момент времени.
Облачность - указаны через наклонную черту верхняя и нижняя облачность в баллах и высота нижней границы облаков в метрах. Внимание: облачность, как и прочие метеорологические величины в США измеряются автоматическими метеостанциями. Указанные значения в баллах носят условный характер и показывают процент времени, в течение которого, в среднем, лазерный луч высотомера отражался от облаков обратно.
T - Температура воздуха - температура, измеренная на высоте 2 м над землей.
Td - Температура точки росы - температура, при понижении до которой содержащийся в воздухе водяной пар достигнет насыщения.
f - Относительная влажность воздуха - влажноcть воздуха, измеренная на высоте 2 м над землей.
Te - Эффективная температура - температура, которую ощущает одетый по сезону человек в тени. Характеристика душности погоды. При расчете учитывается влияние влажности воздуха и скорости ветра на теплоощущения человека.
Tes - Эффективная температура на солнце - температура, которую ощущает человек, с поправкой на солнечный нагрев. Характеристика знойности погоды. Зависит от высоты солнца над горизонтом, облачности и скорости ветра. Ночью, в пасмурную погоду, а также при ветре 12 м/с и более поправка равна нулю.
P - Атмосферное давление - приведенное к уровню моря атмосферное давление.
Po - Атмосферное давление - измеренное на уровне метеостанции атмосферное давление.
Tmin - Минимальная температура - минимум температуры воздуха на высоте 2 м над землей.
Tmax - Максимальная температура - максимум температуры воздуха на высоте 2 м над землей.
R - Количество осадков - Количество выпавших осадков за 3 или 6 часов, мм.
SD - Снежный покров - Высота снежного покрова, см.